EW5860 Weather Reports


time (UTC)temp
F
wind
direction
speed
knots
gust
knots
rain 1hr
in
rain 24hr
in
rain mn
in
humidity
%
barometer
mb
20260831023019 74 173 1.7 7.8 0.00 0.09 0.09 94 1018.9
20260831021518 74 227 3.5 6.1 0.00 0.09 0.09 95 1018.7
20260831020018 74 202 0.9 6.1 0.06 0.09 0.09 96 1018.8
20260831014519 74 234 0.0 1.7 0.08 0.09 0.09 96 1018.7
20260831013017 74 203 0.0 1.7 0.09 0.09 0.09 96 1019.0
20260831011518 74 205 0.0 0.9 0.09 0.09 0.09 95 1018.7
20260831010015 75 240 0.0 0.0 0.02 0.02 0.02 93 1018.5
20260831004515 76 240 0.0 2.6 0.01 0.01 0.01 91 1018.4
20260831003020 76 211 0.9 3.5 0.00 0.00 0.00 89 1018.1
20260831001518 77 205 0.9 2.6 0.00 0.00 0.00 89 1018.0
20260831000013 77 200 0.9 4.3 0.00 0.00 0.00 88 1018.0
20260830234531 77 195 0.0 1.7 0.00 0.00 0.00 89 1017.8
20260830233011 77 208 0.0 1.7 0.00 0.00 0.00 90 1017.9
20260830231513 78 201 0.0 0.9 0.00 0.00 0.00 88 1018.0
20260830230009 79 200 0.0 2.6 0.00 0.00 0.00 86 1018.0
20260830224509 80 217 0.0 2.6 0.00 0.00 0.00 84 1018.0
20260830223009 80 196 0.9 2.6 0.00 0.00 0.00 81 1017.9
20260830221513 82 224 0.9 2.6 0.00 0.00 0.00 78 1017.8
20260830220009 82 177 0.0 6.1 0.00 0.00 0.00 75 1017.8
20260830214507 83 232 1.7 4.3 0.00 0.00 0.00 73 1017.7
20260830213005 82 209 0.9 4.3 0.00 0.00 0.00 74 1017.7
20260830211503 82 246 0.9 8.7 0.00 0.00 0.00 75 1017.8
20260830210003 82 250 2.6 7.0 0.00 0.00 0.00 74 1017.8
20260830204501 82 187 2.6 7.8 0.00 0.00 0.00 76 1017.8
20260830203100 81 170 0.0 5.2 0.00 0.00 0.00 80 1017.8
20260830201604 81 197 1.7 3.5 0.00 0.00 0.00 80 1017.8
20260830200056 80 99 0.0 2.6 0.00 0.00 0.00 82 1018.1
20260830194553 79 226 1.7 3.5 0.00 0.00 0.00 82 1018.4
20260830193052 80 204 0.9 6.1 0.00 0.00 0.00 79 1018.7
20260830191556 80 248 2.6 9.6 0.00 0.00 0.00 78 1019.0
20260830190100 81 208 2.6 7.0 0.00 0.00 0.00 77 1019.1
20260830184546 81 209 2.6 6.1 0.00 0.00 0.00 77 1019.0
20260830183043 80 184 2.6 7.8 0.00 0.00 0.00 78 1019.3
20260830181540 80 174 4.3 10.4 0.00 0.00 0.00 78 1019.5
20260830180037 79 204 3.5 7.8 0.00 0.00 0.00 78 1019.7
20260830174537 80 185 4.3 10.4 0.00 0.00 0.00 79 1019.9
20260830173031 78 205 1.7 7.0 0.00 0.00 0.00 82 1020.0
20260830171526 77 21 0.0 0.9 0.00 0.00 0.00 85 1020.3
20260830170039 75 22 0.0 0.9 0.00 0.00 0.00 86 1020.4
20260830164523 76 340 0.0 1.7 0.00 0.00 0.00 84 1020.6
20260830163026 76 267 0.9 4.3 0.00 0.00 0.00 84 1020.7
20260830161520 76 252 0.9 3.5 0.00 0.00 0.00 85 1020.8
20260830160025 76 247 0.9 4.3 0.00 0.00 0.00 85 1020.8
20260830154516 75 232 0.9 2.6 0.00 0.00 0.00 86 1021.1
20260830153014 75 257 0.0 2.6 0.00 0.00 0.00 86 1021.2
20260830151513 74 202 1.7 4.3 0.00 0.00 0.00 86 1021.3
20260830150017 74 254 2.6 7.8 0.00 0.00 0.00 85 1021.1
20260830144510 74 186 5.2 10.4 0.00 0.00 0.00 86 1021.2
20260830143007 73 185 1.7 8.7 0.00 0.00 0.00 89 1021.2
20260830141503 72 160 1.7 8.7 0.00 0.00 0.00 90 1021.3
20260830140106 71 171 1.7 6.1 0.00 0.00 0.00 91 1021.4
20260830134558 70 209 0.9 4.3 0.00 0.00 0.00 92 1021.5
20260830133053 70 230 3.5 7.8 0.00 0.00 0.00 93 1021.7
20260830131557 69 209 1.7 6.1 0.00 0.00 0.00 95 1021.9
20260830130046 66 232 0.9 2.6 0.00 0.00 0.00 97 1022.0
20260830124541 63 242 0.0 0.0 0.00 0.00 0.00 97 1022.1
20260830123040 62 242 0.0 0.0 0.00 0.00 0.00 97 1022.2
20260830121535 61 242 0.0 0.0 0.00 0.00 0.00 97 1022.3
20260830120035 60 242 0.0 0.0 0.00 0.00 0.00 97 1022.3
20260830114532 59 242 0.0 0.0 0.00 0.00 0.00 97 1022.4
20260830113031 59 254 0.0 0.0 0.00 0.00 0.00 97 1022.4
20260830111532 59 254 0.0 0.0 0.00 0.00 0.00 97 1022.4
20260830110030 58 254 0.0 0.0 0.00 0.00 0.00 97 1022.4
20260830104529 58 254 0.0 0.0 0.00 0.00 0.00 97 1022.4
20260830103032 58 254 0.0 0.0 0.00 0.00 0.00 97 1022.5
20260830101528 57 254 0.0 0.0 0.00 0.00 0.00 97 1022.5
20260830100027 57 254 0.0 0.0 0.00 0.00 0.00 97 1022.5
20260830094527 57 254 0.0 0.0 0.00 0.00 0.00 97 1022.4
20260830093037 57 254 0.0 0.0 0.00 0.00 0.00 97 1022.4
20260830091525 57 254 0.0 0.0 0.00 0.00 0.00 97 1022.2
20260830090024 57 254 0.0 0.0 0.00 0.00 0.00 97 1022.4
20260830084523 56 254 0.0 0.0 0.00 0.00 0.00 97 1022.5
20260830083021 56 254 0.0 0.0 0.00 0.00 0.00 97 1022.6
20260830081524 56 254 0.0 0.0 0.00 0.00 0.00 97 1022.7
20260830080021 56 254 0.0 0.0 0.00 0.00 0.00 97 1022.8
20260830074519 56 254 0.0 0.0 0.00 0.00 0.00 96 1022.8
20260830073021 56 254 0.0 0.0 0.00 0.00 0.00 96 1023.0
20260830071519 56 254 0.0 0.0 0.00 0.00 0.00 96 1023.0
20260830070018 56 254 0.0 0.0 0.00 0.00 0.00 96 1023.0
20260830064518 56 254 0.0 0.0 0.00 0.00 0.00 96 1023.0
20260830063025 56 254 0.0 0.0 0.00 0.00 0.00 96 1023.1
20260830061516 56 254 0.0 0.0 0.00 0.00 0.00 96 1023.0
20260830060016 56 254 0.0 0.0 0.00 0.00 0.00 95 1023.0
20260830054514 57 254 0.0 0.0 0.00 0.00 0.00 95 1023.0
20260830053013 57 254 0.0 0.0 0.00 0.00 0.00 94 1023.0
20260830051515 57 254 0.0 0.0 0.00 0.00 0.00 93 1023.0
20260830050010 58 254 0.0 0.0 0.00 0.00 0.00 93 1023.0
20260830044507 58 254 0.0 0.0 0.00 0.00 0.00 91 1023.0
20260830043009 59 254 0.0 0.0 0.00 0.00 0.00 89 1022.9
20260830041502 59 254 0.0 0.0 0.00 0.00 0.00 87 1022.7
20260830040059 60 254 0.0 0.0 0.00 0.00 0.00 85 1022.6
20260830034557 62 134 0.0 0.0 0.00 0.00 0.00 81 1022.6
20260830033056 61 134 0.0 0.0 0.00 0.00 0.00 84 1022.7
20260830031555 62 134 0.0 0.0 0.00 0.00 0.00 84 1022.7
20260830030055 61 134 0.0 0.0 0.00 0.00 0.00 85 1022.6
20260830024554 61 212 0.0 0.0 0.00 0.00 0.00 88 1022.7